LDM71G HECA-LOWW

Flight info

Callsign LDM71G
Flight time 2h 55m
Altitude 38000
Route CVO L617 NOZ L551 ANTAR DCT KPC DCT AKINA DCT RIGRO DCT PEREN UL863 EVIVI L863 OKANA DCT ESIRI DCT DONIV DCT PARAK DCT BALUX DCT TORNO DCT NATEX NATEX2W
Aircraft A20N/M-SDE2E3FGHIRWXY/LB1

Departure

Time 2026-04-25 18:50
Airport Cairo International Airport (HECA)

Arrival

Time 2026-04-25 21:46
Airport Vienna International Airport (LOWW)
Time Latitude Longitude Altitude Speed Heading
2026-04-25 18:22 30.13064 31.40580 374 ft 0 kts 135°
2026-04-25 18:41 30.13075 31.40567 374 ft 2 kts 134°
2026-04-25 18:41 30.13087 31.40553 374 ft 2 kts 132°
2026-04-25 18:42 30.13097 31.40538 374 ft 2 kts 128°
2026-04-25 18:42 30.13104 31.40528 374 ft 2 kts 124°
2026-04-25 18:42 30.13114 31.40506 374 ft 2 kts 98°
2026-04-25 18:42 30.13114 31.40489 374 ft 1 kts 75°
2026-04-25 18:43 30.13113 31.40485 374 ft 0 kts 75°
2026-04-25 18:46 30.13124 31.40532 374 ft 12 kts 75°
2026-04-25 18:46 30.13164 31.40623 374 ft 13 kts 19°
2026-04-25 18:46 30.13254 31.40602 374 ft 14 kts 345°
2026-04-25 18:46 30.13355 31.40570 374 ft 16 kts 344°
2026-04-25 18:47 30.13468 31.40534 374 ft 18 kts 345°
2026-04-25 18:47 30.13590 31.40505 374 ft 17 kts 20°
2026-04-25 18:47 30.13674 31.40605 374 ft 18 kts 49°
2026-04-25 18:47 30.13751 31.40638 374 ft 0 kts 356°
2026-04-25 18:49 30.13756 31.40636 374 ft 4 kts 342°
2026-04-25 18:49 30.13838 31.40596 374 ft 16 kts 317°
2026-04-25 18:49 30.13811 31.40485 374 ft 16 kts 231°
2026-04-25 18:49 30.13634 31.40249 374 ft 71 kts 229°
2026-04-25 18:50 30.13171 31.39631 374 ft 127 kts 229°
2026-04-25 18:50 30.12508 31.38734 385 ft 168 kts 227°
2026-04-25 18:50 30.11739 31.37686 823 ft 171 kts 229°
2026-04-25 18:50 30.11003 31.36628 1416 ft 169 kts 232°
2026-04-25 18:51 30.10278 31.35537 1976 ft 174 kts 232°
2026-04-25 18:51 30.09777 31.34771 2291 ft 180 kts 232°
2026-04-25 18:51 30.08632 31.33212 2680 ft 207 kts 229°
2026-04-25 18:51 30.07656 31.31865 2994 ft 230 kts 238°
2026-04-25 18:52 30.07169 31.30037 3378 ft 252 kts 268°
2026-04-25 18:52 30.07576 31.28034 4004 ft 264 kts 297°
2026-04-25 18:52 30.08798 31.26442 4837 ft 271 kts 320°
2026-04-25 18:52 30.10385 31.25245 5671 ft 275 kts 326°
2026-04-25 18:53 30.12018 31.24074 6480 ft 277 kts 324°
2026-04-25 18:53 30.13614 31.22807 7259 ft 280 kts 321°
2026-04-25 18:53 30.15170 31.21445 8056 ft 282 kts 319°
2026-04-25 18:53 30.16707 31.20017 8843 ft 285 kts 317°
2026-04-25 18:54 30.19773 31.17078 10346 ft 293 kts 316°
2026-04-25 18:54 30.21385 31.15520 10708 ft 312 kts 316°
2026-04-25 18:54 30.23117 31.13845 10839 ft 336 kts 316°
2026-04-25 18:55 30.24934 31.12096 10857 ft 341 kts 317°
2026-04-25 18:55 30.26758 31.10349 10857 ft 340 kts 317°
2026-04-25 18:55 30.28569 31.08612 10860 ft 340 kts 317°
2026-04-25 18:55 30.30410 31.06844 10985 ft 344 kts 316°
2026-04-25 18:56 30.32251 31.05072 11679 ft 344 kts 316°
2026-04-25 18:56 30.34092 31.03302 12523 ft 344 kts 316°
2026-04-25 18:56 30.35943 31.01517 13241 ft 348 kts 316°
2026-04-25 18:56 30.37811 30.99716 13938 ft 351 kts 315°
2026-04-25 18:57 30.39698 30.97895 14555 ft 354 kts 315°
2026-04-25 18:57 30.41601 30.96057 15190 ft 358 kts 315°
2026-04-25 18:57 30.43520 30.94204 15813 ft 361 kts 315°
2026-04-25 18:57 30.44801 30.92965 16222 ft 363 kts 315°
2026-04-25 18:58 30.47416 30.90438 17032 ft 368 kts 315°
2026-04-25 18:58 30.51386 30.86597 18216 ft 375 kts 315°
2026-04-25 18:58 30.53394 30.84653 18765 ft 376 kts 314°
2026-04-25 18:59 30.57427 30.80748 19903 ft 379 kts 314°
2026-04-25 18:59 30.61492 30.76804 21007 ft 382 kts 314°
2026-04-25 19:00 30.65590 30.72824 22083 ft 386 kts 313°
2026-04-25 19:00 30.67712 30.70878 22585 ft 393 kts 320°
2026-04-25 19:01 30.72305 30.67341 23599 ft 398 kts 319°
2026-04-25 19:01 30.74588 30.65583 24018 ft 400 kts 319°
2026-04-25 19:01 30.76924 30.63804 24426 ft 403 kts 319°
2026-04-25 19:01 30.79279 30.62024 24830 ft 405 kts 319°
2026-04-25 19:02 30.84049 30.58434 25616 ft 410 kts 319°
2026-04-25 19:02 30.86450 30.56628 26010 ft 412 kts 319°
2026-04-25 19:02 30.88863 30.54811 26355 ft 415 kts 319°
2026-04-25 19:03 30.92114 30.52363 26871 ft 417 kts 319°
2026-04-25 19:03 30.96178 30.49295 27479 ft 420 kts 319°
2026-04-25 19:03 30.98635 30.47437 27819 ft 422 kts 319°
2026-04-25 19:04 31.03587 30.43692 28482 ft 426 kts 319°
2026-04-25 19:04 31.06074 30.41809 28801 ft 428 kts 319°
2026-04-25 19:05 31.11088 30.38011 29395 ft 431 kts 319°
2026-04-25 19:05 31.16145 30.34175 30000 ft 435 kts 319°
2026-04-25 19:05 31.18688 30.32244 30248 ft 437 kts 319°
2026-04-25 19:06 31.21242 30.30303 30485 ft 439 kts 319°
2026-04-25 19:06 31.26355 30.26413 30970 ft 443 kts 319°
2026-04-25 19:06 31.28967 30.24424 31276 ft 443 kts 319°
2026-04-25 19:07 31.34094 30.20517 31907 ft 442 kts 319°
2026-04-25 19:07 31.36670 30.18551 32220 ft 441 kts 319°
2026-04-25 19:08 31.41812 30.14622 32813 ft 441 kts 319°
2026-04-25 19:08 31.44379 30.12659 33110 ft 440 kts 319°
2026-04-25 19:09 31.52059 30.06778 33934 ft 439 kts 319°
2026-04-25 19:09 31.53752 30.05480 34081 ft 439 kts 319°
2026-04-25 19:09 31.59709 30.00910 34612 ft 437 kts 319°
2026-04-25 19:10 31.62254 29.98956 34824 ft 436 kts 319°
2026-04-25 19:10 31.64792 29.97006 35026 ft 436 kts 319°
2026-04-25 19:10 31.67329 29.95054 35220 ft 436 kts 319°
2026-04-25 19:10 31.69866 29.93102 35416 ft 435 kts 319°
2026-04-25 19:11 31.72394 29.91155 35597 ft 435 kts 319°
2026-04-25 19:11 31.74923 29.89207 35769 ft 435 kts 319°
2026-04-25 19:11 31.77450 29.87258 35945 ft 434 kts 319°
2026-04-25 19:11 31.79974 29.85311 36111 ft 434 kts 319°
2026-04-25 19:12 31.82464 29.83388 36282 ft 434 kts 319°
2026-04-25 19:12 31.85018 29.81415 36428 ft 434 kts 319°
2026-04-25 19:12 31.87506 29.79491 36573 ft 434 kts 319°
2026-04-25 19:12 31.90025 29.77543 36712 ft 433 kts 319°
2026-04-25 19:13 31.92546 29.75592 36855 ft 433 kts 319°
2026-04-25 19:13 31.95062 29.73643 36983 ft 433 kts 319°
2026-04-25 19:13 31.97580 29.71691 37116 ft 433 kts 319°
2026-04-25 19:13 32.00096 29.69739 37237 ft 433 kts 319°
2026-04-25 19:14 32.02619 29.67781 37359 ft 433 kts 319°
2026-04-25 19:14 32.07655 29.63869 37590 ft 433 kts 319°
2026-04-25 19:14 32.10168 29.61914 37693 ft 433 kts 319°
2026-04-25 19:15 32.12681 29.59958 37792 ft 433 kts 319°
2026-04-25 19:15 32.17711 29.56039 37940 ft 433 kts 319°
2026-04-25 19:16 32.22741 29.52116 37942 ft 433 kts 319°
2026-04-25 19:16 32.27765 29.48190 37942 ft 433 kts 319°
2026-04-25 19:17 32.32796 29.44255 37940 ft 434 kts 319°
2026-04-25 19:17 32.37796 29.40339 37943 ft 434 kts 319°
2026-04-25 19:18 32.42836 29.36386 37942 ft 434 kts 319°
2026-04-25 19:18 32.47875 29.32428 37940 ft 435 kts 319°
2026-04-25 19:19 32.52919 29.28461 37945 ft 435 kts 319°
2026-04-25 19:19 32.57965 29.24487 37945 ft 436 kts 319°
2026-04-25 19:20 32.63014 29.20506 37942 ft 436 kts 319°
2026-04-25 19:20 32.68062 29.16519 37944 ft 436 kts 319°
2026-04-25 19:21 32.73118 29.12520 37945 ft 437 kts 319°
2026-04-25 19:21 32.80710 29.06507 37940 ft 437 kts 319°
2026-04-25 19:22 32.85773 29.02489 37941 ft 437 kts 319°
2026-04-25 19:23 32.93333 28.96479 37942 ft 438 kts 319°
2026-04-25 19:23 33.00944 28.90416 37942 ft 438 kts 319°
2026-04-25 19:24 33.06021 28.86365 37941 ft 439 kts 320°
2026-04-25 19:25 33.16176 28.78244 37934 ft 440 kts 320°
2026-04-25 19:25 33.21256 28.74173 37943 ft 440 kts 320°
2026-04-25 19:26 33.25488 28.70777 37931 ft 441 kts 320°
2026-04-25 19:26 33.30578 28.66687 37940 ft 441 kts 320°
2026-04-25 19:27 33.34816 28.63278 37932 ft 442 kts 320°
2026-04-25 19:27 33.40773 28.58478 37936 ft 442 kts 320°
2026-04-25 19:28 33.45877 28.54359 37925 ft 443 kts 320°
2026-04-25 19:28 33.50989 28.50229 37933 ft 443 kts 320°
2026-04-25 19:29 33.56102 28.46090 37931 ft 444 kts 320°
2026-04-25 19:29 33.61187 28.41970 37934 ft 444 kts 320°
2026-04-25 19:30 33.66310 28.37812 37931 ft 445 kts 320°
2026-04-25 19:30 33.71441 28.33643 37929 ft 445 kts 320°
2026-04-25 19:31 33.76578 28.29465 37928 ft 446 kts 320°
2026-04-25 19:31 33.81811 28.25420 37930 ft 450 kts 325°
2026-04-25 19:32 33.87280 28.21737 37924 ft 451 kts 325°
2026-04-25 19:32 33.91831 28.18666 37925 ft 451 kts 325°
2026-04-25 19:33 33.98233 28.14329 37929 ft 452 kts 325°
2026-04-25 19:33 34.03717 28.10606 37924 ft 453 kts 325°
2026-04-25 19:34 34.09204 28.06875 37925 ft 453 kts 325°
2026-04-25 19:34 34.14698 28.03134 37925 ft 454 kts 326°
2026-04-25 19:35 34.20199 27.99383 37926 ft 454 kts 326°
2026-04-25 19:35 34.25662 27.95652 37924 ft 454 kts 326°
2026-04-25 19:36 34.31174 27.91882 37924 ft 455 kts 326°
2026-04-25 19:36 34.36684 27.88107 37923 ft 455 kts 326°
2026-04-25 19:37 34.42193 27.84327 37923 ft 455 kts 326°
2026-04-25 19:37 34.47703 27.80541 37920 ft 455 kts 326°
2026-04-25 19:38 34.53214 27.76747 37916 ft 456 kts 326°
2026-04-25 19:38 34.58727 27.72947 37921 ft 456 kts 326°
2026-04-25 19:39 34.64242 27.69140 37919 ft 456 kts 326°
2026-04-25 19:39 34.69755 27.65329 37917 ft 456 kts 326°
2026-04-25 19:40 34.75265 27.61513 37911 ft 456 kts 326°
2026-04-25 19:40 34.80774 27.57691 37909 ft 456 kts 327°
2026-04-25 19:41 34.86276 27.53869 37913 ft 455 kts 327°
2026-04-25 19:41 34.90848 27.50689 37913 ft 455 kts 327°
2026-04-25 19:42 34.97274 27.46211 37914 ft 455 kts 327°
2026-04-25 19:42 35.02734 27.42400 37916 ft 455 kts 327°
2026-04-25 19:43 35.08223 27.38562 37918 ft 455 kts 328°
2026-04-25 19:43 35.13711 27.34720 37914 ft 455 kts 328°
2026-04-25 19:44 35.19203 27.30870 37911 ft 454 kts 328°
2026-04-25 19:44 35.24687 27.27018 37906 ft 455 kts 328°
2026-04-25 19:45 35.30174 27.23158 37895 ft 455 kts 328°
2026-04-25 19:45 35.35669 27.19289 37900 ft 456 kts 328°
2026-04-25 19:46 35.41188 27.15396 37910 ft 459 kts 328°
2026-04-25 19:46 35.46960 27.11992 37916 ft 461 kts 334°
2026-04-25 19:47 35.52772 27.08709 37913 ft 463 kts 334°
2026-04-25 19:47 35.58634 27.05391 37921 ft 465 kts 334°
2026-04-25 19:48 35.64500 27.02064 37920 ft 465 kts 334°
2026-04-25 19:48 35.70371 26.98730 37921 ft 464 kts 334°
2026-04-25 19:49 35.74296 26.96498 37918 ft 465 kts 334°
2026-04-25 19:49 35.82012 26.92105 37920 ft 464 kts 334°
2026-04-25 19:50 35.90696 26.87147 37927 ft 463 kts 334°
2026-04-25 19:51 35.96542 26.83804 37920 ft 462 kts 334°
2026-04-25 19:51 36.02376 26.80462 37921 ft 462 kts 334°
2026-04-25 19:52 36.08201 26.77120 37927 ft 461 kts 334°
2026-04-25 19:52 36.14019 26.73776 37929 ft 461 kts 334°
2026-04-25 19:53 36.19835 26.70427 37928 ft 461 kts 334°
2026-04-25 19:53 36.25648 26.67075 37933 ft 460 kts 334°
2026-04-25 19:54 36.31449 26.63724 37935 ft 460 kts 334°
2026-04-25 19:54 36.37213 26.60389 37937 ft 459 kts 334°
2026-04-25 19:55 36.42992 26.57040 37939 ft 457 kts 335°
2026-04-25 19:55 36.48750 26.53697 37937 ft 456 kts 335°
2026-04-25 19:56 36.54493 26.50357 37939 ft 455 kts 335°
2026-04-25 19:56 36.60229 26.47017 37943 ft 454 kts 335°
2026-04-25 19:57 36.65952 26.43678 37942 ft 454 kts 335°
2026-04-25 19:57 36.71673 26.40335 37949 ft 454 kts 335°
2026-04-25 19:58 36.77401 26.36982 37953 ft 455 kts 335°
2026-04-25 19:58 36.83088 26.33648 37948 ft 454 kts 335°
2026-04-25 19:59 36.88810 26.30287 37949 ft 455 kts 335°
2026-04-25 19:59 36.94533 26.26921 37949 ft 454 kts 335°
2026-04-25 20:00 37.00237 26.23548 37952 ft 454 kts 335°
2026-04-25 20:00 37.05907 26.20081 37953 ft 454 kts 335°
2026-04-25 20:01 37.14414 26.14867 37958 ft 453 kts 335°
2026-04-25 20:01 37.20073 26.11402 37960 ft 452 kts 335°
2026-04-25 20:02 37.25730 26.07934 37963 ft 452 kts 335°
2026-04-25 20:02 37.31387 26.04461 37968 ft 452 kts 335°
2026-04-25 20:03 37.37042 26.00983 37970 ft 452 kts 335°
2026-04-25 20:03 37.42684 25.97507 37970 ft 452 kts 335°
2026-04-25 20:04 37.48326 25.94025 37974 ft 452 kts 335°
2026-04-25 20:04 37.53929 25.90562 37981 ft 452 kts 335°
2026-04-25 20:05 37.59572 25.87068 37984 ft 452 kts 335°
2026-04-25 20:05 37.65230 25.83626 37983 ft 451 kts 335°
2026-04-25 20:06 37.70882 25.80212 37978 ft 449 kts 335°
2026-04-25 20:06 37.76528 25.76790 37985 ft 450 kts 335°
2026-04-25 20:07 37.82160 25.73365 37985 ft 449 kts 335°
2026-04-25 20:07 37.87752 25.69958 37991 ft 449 kts 335°
2026-04-25 20:08 37.93373 25.66526 37995 ft 448 kts 335°
2026-04-25 20:08 37.98990 25.63090 38001 ft 448 kts 335°
2026-04-25 20:09 38.04602 25.59653 38005 ft 448 kts 335°
2026-04-25 20:09 38.10208 25.56211 38007 ft 447 kts 335°
2026-04-25 20:10 38.15811 25.52766 38008 ft 447 kts 335°
2026-04-25 20:10 38.21410 25.49319 38010 ft 447 kts 335°
2026-04-25 20:11 38.26998 25.45872 38012 ft 446 kts 335°
2026-04-25 20:11 38.32584 25.42420 38011 ft 446 kts 335°
2026-04-25 20:12 38.38163 25.38967 38010 ft 445 kts 335°
2026-04-25 20:12 38.41850 25.36681 38013 ft 445 kts 335°
2026-04-25 20:13 38.49265 25.32077 38016 ft 444 kts 335°
2026-04-25 20:13 38.54823 25.28618 38017 ft 444 kts 335°
2026-04-25 20:14 38.60374 25.25158 38019 ft 443 kts 335°
2026-04-25 20:14 38.64979 25.22284 38023 ft 443 kts 335°
2026-04-25 20:15 38.70505 25.18828 38013 ft 441 kts 335°
2026-04-25 20:15 38.76001 25.15385 38017 ft 439 kts 335°
2026-04-25 20:16 38.81494 25.11939 38022 ft 439 kts 335°
2026-04-25 20:16 38.86971 25.08497 38022 ft 438 kts 335°
2026-04-25 20:17 38.92445 25.05051 38020 ft 438 kts 335°
2026-04-25 20:17 38.97916 25.01601 38021 ft 438 kts 336°
2026-04-25 20:18 39.03384 24.98146 38032 ft 438 kts 335°
2026-04-25 20:18 39.08851 24.94686 38027 ft 438 kts 335°
2026-04-25 20:19 39.14298 24.91232 38031 ft 435 kts 336°
2026-04-25 20:19 39.19726 24.87786 38025 ft 435 kts 336°
2026-04-25 20:20 39.25147 24.84337 38032 ft 434 kts 336°
2026-04-25 20:20 39.30560 24.80887 38027 ft 434 kts 336°
2026-04-25 20:21 39.35929 24.77461 38035 ft 433 kts 336°
2026-04-25 20:21 39.41332 24.74006 38032 ft 433 kts 336°
2026-04-25 20:22 39.45854 24.71109 38023 ft 433 kts 336°
2026-04-25 20:22 39.52119 24.67090 38050 ft 432 kts 336°
2026-04-25 20:23 39.57503 24.63628 38042 ft 432 kts 336°
2026-04-25 20:23 39.62888 24.60161 38043 ft 431 kts 336°
2026-04-25 20:24 39.68261 24.56695 38041 ft 431 kts 336°
2026-04-25 20:24 39.73627 24.53228 38039 ft 431 kts 336°
2026-04-25 20:25 39.78991 24.49755 38035 ft 430 kts 336°
2026-04-25 20:25 39.84347 24.46282 38031 ft 430 kts 336°
2026-04-25 20:26 39.89665 24.42828 38030 ft 430 kts 336°
2026-04-25 20:26 39.95013 24.39348 38027 ft 429 kts 336°
2026-04-25 20:27 40.00355 24.35865 38028 ft 429 kts 336°
2026-04-25 20:27 40.05692 24.32380 38023 ft 429 kts 336°
2026-04-25 20:28 40.11033 24.28887 38021 ft 429 kts 336°
2026-04-25 20:28 40.16362 24.25395 38029 ft 429 kts 336°
2026-04-25 20:29 40.21694 24.21895 38030 ft 428 kts 336°
2026-04-25 20:29 40.27023 24.18390 38029 ft 428 kts 335°
2026-04-25 20:30 40.32312 24.14906 38031 ft 428 kts 335°
2026-04-25 20:30 40.37635 24.11393 38021 ft 428 kts 335°
2026-04-25 20:31 40.42936 24.07888 38019 ft 426 kts 335°
2026-04-25 20:31 40.48229 24.04382 38021 ft 426 kts 335°
2026-04-25 20:32 40.53511 24.00880 38019 ft 425 kts 335°
2026-04-25 20:32 40.58787 23.97377 38022 ft 425 kts 335°
2026-04-25 20:33 40.64094 23.93956 38017 ft 424 kts 337°
2026-04-25 20:33 40.68528 23.91201 38018 ft 424 kts 337°
2026-04-25 20:34 40.74748 23.87310 38016 ft 423 kts 337°
2026-04-25 20:34 40.80064 23.83961 38013 ft 423 kts 336°
2026-04-25 20:35 40.85374 23.80608 38013 ft 423 kts 336°
2026-04-25 20:35 40.90651 23.77270 38015 ft 423 kts 336°
2026-04-25 20:36 40.95963 23.73904 38013 ft 423 kts 336°
2026-04-25 20:36 41.01276 23.70531 38012 ft 423 kts 336°
2026-04-25 20:37 41.06585 23.67155 38011 ft 423 kts 336°
2026-04-25 20:37 41.11894 23.63773 38009 ft 423 kts 336°
2026-04-25 20:38 41.17200 23.60387 38012 ft 423 kts 336°
2026-04-25 20:38 41.22501 23.56998 38014 ft 423 kts 336°
2026-04-25 20:39 41.27799 23.53601 38015 ft 423 kts 336°
2026-04-25 20:39 41.32205 23.50767 38025 ft 423 kts 335°
2026-04-25 20:40 41.38364 23.46801 38026 ft 423 kts 335°
2026-04-25 20:40 41.43658 23.43376 38025 ft 423 kts 335°
2026-04-25 20:41 41.48932 23.39935 38018 ft 421 kts 335°
2026-04-25 20:41 41.54195 23.36499 38025 ft 421 kts 335°
2026-04-25 20:42 41.59455 23.33060 38026 ft 421 kts 335°
2026-04-25 20:42 41.64708 23.29620 38027 ft 420 kts 335°
2026-04-25 20:43 41.69962 23.26173 38027 ft 420 kts 335°
2026-04-25 20:43 41.75210 23.22723 38031 ft 420 kts 335°
2026-04-25 20:44 41.80461 23.19265 38034 ft 420 kts 335°
2026-04-25 20:44 41.85711 23.15802 38040 ft 420 kts 335°
2026-04-25 20:45 41.90928 23.12354 38041 ft 420 kts 335°
2026-04-25 20:45 41.96176 23.08879 38043 ft 420 kts 334°
2026-04-25 20:46 42.01422 23.05399 38047 ft 420 kts 334°
2026-04-25 20:46 42.06662 23.01916 38047 ft 420 kts 334°
2026-04-25 20:47 42.11887 22.98437 38045 ft 418 kts 334°
2026-04-25 20:47 42.17098 22.94961 38046 ft 418 kts 334°
2026-04-25 20:48 42.22308 22.91479 38047 ft 417 kts 334°
2026-04-25 20:48 42.27506 22.87999 38052 ft 417 kts 334°
2026-04-25 20:49 42.32697 22.84517 38052 ft 417 kts 334°
2026-04-25 20:49 42.37892 22.81026 38066 ft 417 kts 334°
2026-04-25 20:50 42.43085 22.77530 38072 ft 417 kts 334°
2026-04-25 20:50 42.48273 22.74031 38062 ft 415 kts 334°
2026-04-25 20:51 42.53445 22.70536 38070 ft 416 kts 333°
2026-04-25 20:51 42.58592 22.67051 38072 ft 416 kts 333°
2026-04-25 20:52 42.62929 22.64111 38075 ft 416 kts 333°
2026-04-25 20:52 42.68948 22.60020 38077 ft 416 kts 333°
2026-04-25 20:53 42.74127 22.56495 38080 ft 416 kts 333°
2026-04-25 20:53 42.79306 22.52962 38078 ft 417 kts 333°
2026-04-25 20:54 42.84486 22.49423 38073 ft 416 kts 333°
2026-04-25 20:54 42.89660 22.45901 38064 ft 414 kts 333°
2026-04-25 20:55 42.94816 22.42400 38064 ft 414 kts 333°
2026-04-25 20:55 42.99965 22.38896 38060 ft 413 kts 333°
2026-04-25 20:56 43.05114 22.35382 38049 ft 413 kts 333°
2026-04-25 20:56 43.10253 22.31867 38046 ft 414 kts 333°
2026-04-25 20:57 43.15408 22.28336 38049 ft 414 kts 332°
2026-04-25 20:57 43.20550 22.24806 38035 ft 412 kts 332°
2026-04-25 20:58 43.25684 22.21276 38031 ft 413 kts 332°
2026-04-25 20:58 43.30778 22.17765 38028 ft 412 kts 332°
2026-04-25 20:59 43.35893 22.14234 38024 ft 411 kts 332°
2026-04-25 20:59 43.41008 22.10696 38026 ft 411 kts 332°
2026-04-25 21:00 43.44421 22.08332 38022 ft 411 kts 332°
2026-04-25 21:01 43.53751 22.01853 38014 ft 409 kts 332°
2026-04-25 21:01 43.58833 21.98314 38010 ft 409 kts 332°
2026-04-25 21:02 43.63907 21.94775 38011 ft 409 kts 331°
2026-04-25 21:02 43.70326 21.90287 38014 ft 408 kts 331°
2026-04-25 21:03 43.80460 21.83181 38014 ft 409 kts 331°
2026-04-25 21:03 43.90611 21.76035 38014 ft 409 kts 330°
2026-04-25 21:04 44.00739 21.68878 38012 ft 409 kts 330°
2026-04-25 21:04 44.10887 21.61678 38018 ft 410 kts 330°
2026-04-25 21:05 44.21011 21.54469 38009 ft 407 kts 330°
2026-04-25 21:05 44.31105 21.47252 38005 ft 408 kts 330°
2026-04-25 21:06 44.41285 21.40207 38000 ft 408 kts 331°
2026-04-25 21:06 44.51502 21.33185 37996 ft 409 kts 330°
2026-04-25 21:07 44.61700 21.26131 37999 ft 409 kts 330°
2026-04-25 21:07 44.71901 21.19048 37989 ft 409 kts 330°
2026-04-25 21:08 44.82002 21.11740 37995 ft 408 kts 328°
2026-04-25 21:08 44.92029 21.04264 37996 ft 407 kts 328°
2026-04-25 21:09 45.07068 20.93048 37983 ft 407 kts 328°
2026-04-25 21:09 45.17077 20.85546 37980 ft 407 kts 328°
2026-04-25 21:10 45.27031 20.78054 37992 ft 407 kts 328°
2026-04-25 21:10 45.37031 20.70498 37989 ft 407 kts 328°
2026-04-25 21:11 45.47043 20.62903 37979 ft 407 kts 327°
2026-04-25 21:11 45.57045 20.55283 37971 ft 408 kts 327°
2026-04-25 21:12 45.67060 20.47622 37967 ft 408 kts 327°
2026-04-25 21:12 45.75377 20.41236 37967 ft 408 kts 327°
2026-04-25 21:13 45.87086 20.32209 37967 ft 409 kts 327°
2026-04-25 21:13 45.97101 20.24454 37972 ft 409 kts 327°
2026-04-25 21:14 46.07121 20.16663 37971 ft 409 kts 327°
2026-04-25 21:14 46.17078 20.08891 37974 ft 409 kts 327°
2026-04-25 21:15 46.22486 20.04565 37977 ft 409 kts 326°
2026-04-25 21:15 46.27419 20.00594 37971 ft 408 kts 326°
2026-04-25 21:16 46.32381 19.96602 37970 ft 408 kts 326°
2026-04-25 21:16 46.37348 19.92601 37973 ft 408 kts 326°
2026-04-25 21:17 46.42298 19.88605 37967 ft 407 kts 326°
2026-04-25 21:17 46.47248 19.84601 37967 ft 407 kts 326°
2026-04-25 21:18 46.52189 19.80596 37964 ft 407 kts 326°
2026-04-25 21:18 46.57124 19.76586 37960 ft 406 kts 326°
2026-04-25 21:19 46.62056 19.72572 37962 ft 406 kts 326°
2026-04-25 21:19 46.66978 19.68556 37959 ft 406 kts 326°
2026-04-25 21:20 46.71067 19.65214 37957 ft 405 kts 326°
2026-04-25 21:20 46.86663 19.52414 37962 ft 406 kts 326°
2026-04-25 21:21 47.06340 19.36138 37970 ft 407 kts 326°
2026-04-25 21:21 47.15561 19.28462 37963 ft 408 kts 326°
2026-04-25 21:22 47.25944 19.19784 37971 ft 408 kts 326°
2026-04-25 21:22 47.33167 19.12253 37973 ft 400 kts 309°
2026-04-25 21:23 47.36356 19.05628 37966 ft 395 kts 295°
2026-04-25 21:23 47.38661 18.98310 37714 ft 391 kts 294°
2026-04-25 21:24 47.39808 18.94673 37175 ft 391 kts 293°
2026-04-25 21:24 47.40954 18.91032 36490 ft 391 kts 293°
2026-04-25 21:24 47.42099 18.87378 35769 ft 393 kts 293°
2026-04-25 21:24 47.43247 18.83703 35045 ft 394 kts 293°
2026-04-25 21:25 47.44395 18.80016 34339 ft 396 kts 293°
2026-04-25 21:25 47.45545 18.76313 33575 ft 397 kts 293°
2026-04-25 21:25 47.46700 18.72593 32747 ft 399 kts 293°
2026-04-25 21:25 47.47852 18.68876 31722 ft 399 kts 293°
2026-04-25 21:26 47.49008 18.65138 30620 ft 401 kts 293°
2026-04-25 21:26 47.50168 18.61382 29560 ft 400 kts 293°
2026-04-25 21:26 47.51315 18.57666 28816 ft 391 kts 293°
2026-04-25 21:26 47.52432 18.54041 28438 ft 387 kts 293°
2026-04-25 21:27 47.53544 18.50413 27935 ft 386 kts 292°
2026-04-25 21:27 47.54499 18.46620 27424 ft 401 kts 287°
2026-04-25 21:27 47.55336 18.42624 27029 ft 408 kts 287°
2026-04-25 21:27 47.56247 18.38651 26467 ft 410 kts 292°
2026-04-25 21:28 47.57419 18.34755 26177 ft 414 kts 293°
2026-04-25 21:28 47.58553 18.30908 25927 ft 411 kts 292°
2026-04-25 21:28 47.59702 18.27046 25680 ft 410 kts 293°
2026-04-25 21:28 47.60867 18.23193 25311 ft 410 kts 293°
2026-04-25 21:29 47.62043 18.19356 24859 ft 407 kts 293°
2026-04-25 21:29 47.63213 18.15558 24273 ft 403 kts 293°
2026-04-25 21:29 47.64374 18.11797 23622 ft 401 kts 293°
2026-04-25 21:29 47.65532 18.08043 22907 ft 398 kts 293°
2026-04-25 21:30 47.66673 18.04337 22309 ft 393 kts 293°
2026-04-25 21:30 47.67805 18.00651 21740 ft 392 kts 293°
2026-04-25 21:30 47.68929 17.96988 21166 ft 389 kts 294°
2026-04-25 21:30 47.69682 17.94529 20889 ft 385 kts 294°
2026-04-25 21:31 47.71140 17.89764 20216 ft 382 kts 294°
2026-04-25 21:31 47.72231 17.86190 19849 ft 378 kts 294°
2026-04-25 21:31 47.73335 17.82657 19343 ft 377 kts 293°
2026-04-25 21:31 47.74365 17.79100 18737 ft 373 kts 292°
2026-04-25 21:32 47.75376 17.75566 17975 ft 370 kts 293°
2026-04-25 21:32 47.76390 17.72076 17205 ft 365 kts 293°
2026-04-25 21:32 47.77405 17.68636 16447 ft 361 kts 294°
2026-04-25 21:32 47.78401 17.65288 16102 ft 344 kts 294°
2026-04-25 21:33 47.79344 17.62132 15899 ft 323 kts 294°
2026-04-25 21:33 47.80233 17.59159 15595 ft 308 kts 294°
2026-04-25 21:33 47.81097 17.56263 14971 ft 304 kts 294°
2026-04-25 21:33 47.81954 17.53390 14319 ft 302 kts 294°
2026-04-25 21:34 47.82801 17.50546 13676 ft 299 kts 294°
2026-04-25 21:34 47.83640 17.47725 12952 ft 297 kts 294°
2026-04-25 21:34 47.84473 17.44920 12245 ft 296 kts 294°
2026-04-25 21:34 47.85301 17.42133 11568 ft 294 kts 294°
2026-04-25 21:35 47.86119 17.39374 11054 ft 289 kts 293°
2026-04-25 21:35 47.86936 17.36615 10600 ft 293 kts 293°
2026-04-25 21:35 47.87757 17.33838 10158 ft 293 kts 293°
2026-04-25 21:35 47.88577 17.31060 9788 ft 290 kts 293°
2026-04-25 21:36 47.89381 17.28335 9486 ft 283 kts 293°
2026-04-25 21:36 47.90155 17.25709 9365 ft 270 kts 293°
2026-04-25 21:36 47.90899 17.23181 9070 ft 263 kts 293°
2026-04-25 21:36 47.91621 17.20729 8753 ft 251 kts 293°
2026-04-25 21:37 47.92299 17.18420 8595 ft 235 kts 293°
2026-04-25 21:37 47.92509 17.17703 8513 ft 231 kts 293°
2026-04-25 21:37 47.93517 17.14048 7733 ft 227 kts 284°
2026-04-25 21:37 47.93831 17.11741 7259 ft 226 kts 281°
2026-04-25 21:38 47.94181 17.09463 6782 ft 225 kts 288°
2026-04-25 21:38 47.94721 17.07309 6309 ft 223 kts 294°
2026-04-25 21:38 47.95378 17.05211 5794 ft 222 kts 297°
2026-04-25 21:38 47.96052 17.03157 5334 ft 219 kts 297°
2026-04-25 21:39 47.96718 17.01118 4873 ft 219 kts 297°
2026-04-25 21:39 47.97379 16.99093 4563 ft 216 kts 297°
2026-04-25 21:39 47.98036 16.97083 4209 ft 215 kts 298°
2026-04-25 21:39 47.98691 16.95078 3868 ft 214 kts 297°
2026-04-25 21:40 47.99340 16.93088 3541 ft 212 kts 298°
2026-04-25 21:40 47.99977 16.91137 3393 ft 209 kts 298°
2026-04-25 21:40 48.00626 16.89150 3296 ft 213 kts 297°
2026-04-25 21:40 48.01268 16.87178 3205 ft 210 kts 298°
2026-04-25 21:41 48.01910 16.85214 3116 ft 211 kts 298°
2026-04-25 21:41 48.02553 16.83238 3028 ft 211 kts 298°
2026-04-25 21:41 48.03192 16.81277 2996 ft 209 kts 298°
2026-04-25 21:41 48.03824 16.79337 2995 ft 203 kts 298°
2026-04-25 21:42 48.04417 16.77513 2993 ft 186 kts 298°
2026-04-25 21:42 48.04956 16.75859 2991 ft 168 kts 299°
2026-04-25 21:42 48.05469 16.74291 3010 ft 173 kts 299°
2026-04-25 21:42 48.05992 16.72681 2802 ft 170 kts 299°
2026-04-25 21:43 48.06491 16.71146 2599 ft 163 kts 298°
2026-04-25 21:43 48.07000 16.69585 2379 ft 168 kts 298°
2026-04-25 21:43 48.07508 16.68026 2154 ft 166 kts 297°
2026-04-25 21:43 48.07988 16.66550 1940 ft 148 kts 297°
2026-04-25 21:44 48.08404 16.65268 1760 ft 128 kts 297°
2026-04-25 21:44 48.08775 16.64127 1583 ft 115 kts 296°
2026-04-25 21:44 48.09536 16.61786 1252 ft 130 kts 295°
2026-04-25 21:45 48.09916 16.60618 1028 ft 124 kts 296°
2026-04-25 21:45 48.10042 16.60227 983 ft 123 kts 295°
2026-04-25 21:45 48.10678 16.58271 744 ft 126 kts 296°
2026-04-25 21:45 48.11061 16.57091 631 ft 125 kts 296°
2026-04-25 21:46 48.11414 16.55992 601 ft 102 kts 295°
2026-04-25 21:46 48.11586 16.55490 598 ft 39 kts 301°
2026-04-25 21:46 48.11767 16.55193 592 ft 31 kts 323°
2026-04-25 21:46 48.11836 16.55139 592 ft 0 kts
2026-04-25 21:48 48.11854 16.55140 593 ft 6 kts
2026-04-25 21:48 48.11905 16.55165 593 ft 10 kts 27°
2026-04-25 21:48 48.11945 16.55231 592 ft 8 kts 101°
2026-04-25 21:49 48.11951 16.55300 592 ft 4 kts 29°
2026-04-25 21:49 48.11988 16.55328 592 ft 8 kts 28°
2026-04-25 21:49 48.12015 16.55349 592 ft 0 kts 21°
2026-04-25 21:49 48.12016 16.55318 592 ft 7 kts 270°
2026-04-25 21:50 48.12027 16.55275 592 ft 0 kts 295°